Terminal Aerodrome Forecast
Issued by NWS Dallas/Fort Worth, TX

Home | Current Version | Previous Version | Text Only | Print | Product List | Glossary On
Versions: 1 2 3 4 5 6 7 8 9 10 11 12 13 14 15 16 17 18 19 20 21 22 23 24 25 26 27 28 29 30 31 32 33
064
FTUS44 KFWD 282332
TAFACT
TAF
KACT 282332Z 2900/2924 16018G28KT P6SM SCT040 BKN070
     FM290600 14015KT P6SM BKN019
     FM290800 14013KT 4SM -TSRA BKN020 OVC050CB
     FM291100 16010KT P6SM VCSH BKN035
     FM291500 18014KT P6SM SCT040 BKN090
     FM291900 20013KT P6SM SCT300=

USA.gov is the U.S. government's official web portal to all federal, state and local government web resources and services.